Weather History for Asheville, NC

Change the Weather History Date:

Sunday, July 7, 2013

  Actual Average Record
Temperature  
Mean Temperature 74 °F 74 °F  
Max Temperature 80 °F 84 °F 95 °F (1993)
Min Temperature 68 °F 63 °F 50 °F (1972)
Degree Days  
Heating Degree Days 0 0  
Month to date heating degree days 0 0  
Since 1 June heating degree days 0 14  
Since 1 July heating degree days 0 0  
Cooling Degree Days 9 9  
Month to date cooling degree days 51 59  
Year to date cooling degree days 304 294  
Since 1 June cooling degree days 253 236  
Growing Degree Days 24 (Base 50)    
Moisture  
Dew Point 68 °F    
Average Humidity 84    
Maximum Humidity 100    
Minimum Humidity 67    
Precipitation  
Precipitation 0.12 in 0.15 in 2.53 in (1967)
Month to date precipitation 8.44 1.00  
Year to date precipitation 46.53 23.90  
Snow  
Snow 0.00 in 0.00 in 0.00 in ()
Month to date snowfall 0.0 0.0  
Since 1 June snowfall 0.0 0.0  
Since 1 July snowfall 0.0 0.0  
Snow Depth 0.00 in    
Sea Level Pressure  
Sea Level Pressure 30.17 in    
Wind  
Wind Speed 7 mph (South)    
Max Wind Speed 17 mph    
Max Gust Speed 23 mph    
Visibility 10 miles    
Events Rain    
T = Trace of Precipitation, MM = Missing Value Source: NWS Daily Summary

Daily Weather History Graph

Daily Weather History Graph

Search for Another Location

Airport:

Trip Planner

Search our weather history database for the weather conditions in past years. The results will help you decide how hot, cold, wet, or windy it might be!

Date:

Astronomy

Jul. 07, 2013 Rise Set
Actual Time 6:21 AM EDT 8:48 PM EDT
Civil Twilight 5:52 AM EDT 9:17 PM EDT
Nautical Twilight 5:15 AM EDT 9:54 PM EDT
Astronomical Twilight 4:35 AM EDT 10:34 PM EDT
Moon 5:54 AM EDT (7/7) 8:14 PM EDT (7/7)
Length of Visible Light 15h 25m
Length of Day
14h 26m
Waning Crescent, 0% of the Moon is Illuminated
Jul 7
Waning Crescent
Jul 8
New
Jul 15
First Quarter
Jul 22
Full
Jul 29
Last Quarter

Hourly Weather History & Observations

Time (EDT) Temp. Dew Point Humidity Pressure Visibility Wind Dir Wind Speed Gust Speed Precip Events Conditions
12:21 AM 69.8 °F 69.8 °F 100% 30.24 in 10.0 mi ESE 3.5 mph - 0.00 in   Overcast
12:32 AM 69.8 °F 69.8 °F 100% 30.23 in 10.0 mi Calm Calm - 0.00 in   Overcast
12:47 AM 69.8 °F 69.8 °F 100% 30.23 in 10.0 mi Calm Calm - 0.00 in   Overcast
12:54 AM 70.0 °F 69.1 °F 97% 30.15 in 10.0 mi SE 4.6 mph - 0.00 in Rain Light Rain
1:52 AM 69.8 °F 69.8 °F 100% 30.22 in 7.0 mi SE 3.5 mph - 0.03 in Rain Light Rain
1:54 AM 70.0 °F 69.1 °F 97% 30.14 in 7.0 mi Calm Calm - 0.04 in Rain Light Rain
2:37 AM 69.8 °F 69.8 °F 100% 30.20 in 4.0 mi South 3.5 mph - 0.05 in Rain Rain
2:54 AM 70.0 °F 69.1 °F 97% 30.12 in 8.0 mi South 3.5 mph - 0.06 in Rain Light Rain
3:05 AM 69.8 °F 69.8 °F 100% 30.20 in 10.0 mi SE 3.5 mph - 0.00 in   Overcast
3:29 AM 69.8 °F 69.8 °F 100% 30.20 in 10.0 mi SSE 4.6 mph - 0.00 in Rain Light Rain
3:54 AM 70.0 °F 68.0 °F 93% 30.13 in 10.0 mi SSE 6.9 mph - 0.01 in Rain Light Rain
4:27 AM 69.8 °F 68.0 °F 94% 30.20 in 10.0 mi SSE 5.8 mph - 0.01 in Rain Light Rain
4:51 AM 69.8 °F 68.0 °F 94% 30.20 in 10.0 mi Calm Calm - 0.01 in   Overcast
4:54 AM 69.1 °F 68.0 °F 96% 30.13 in 10.0 mi Calm Calm - 0.01 in   Overcast
5:54 AM 69.1 °F 66.9 °F 93% 30.13 in 10.0 mi SSE 5.8 mph - 0.00 in Rain Light Rain
6:54 AM 68.0 °F 66.9 °F 96% 30.13 in 10.0 mi SSE 6.9 mph - 0.00 in   Partly Cloudy
7:51 AM 69.8 °F 68.0 °F 94% 30.22 in 10.0 mi Calm Calm - N/A   Mostly Cloudy
7:54 AM 69.1 °F 68.0 °F 96% 30.15 in 10.0 mi Calm Calm - N/A   Mostly Cloudy
8:01 AM 69.8 °F 68.0 °F 94% 30.23 in 10.0 mi Calm Calm - N/A   Mostly Cloudy
8:13 AM 69.8 °F 68.0 °F 94% 30.23 in 10.0 mi Calm Calm - N/A   Scattered Clouds
8:54 AM 72.0 °F 68.0 °F 87% 30.17 in 10.0 mi Variable 4.6 mph - N/A   Partly Cloudy
9:54 AM 73.0 °F 66.9 °F 81% 30.16 in 10.0 mi South 10.4 mph - N/A   Partly Cloudy
10:34 AM 73.4 °F 66.2 °F 78% 30.23 in 10.0 mi SSW 10.4 mph - N/A   Mostly Cloudy
10:44 AM 75.2 °F 66.2 °F 73% 30.23 in 10.0 mi South 11.5 mph - N/A   Mostly Cloudy
10:54 AM 75.0 °F 66.9 °F 76% 30.16 in 10.0 mi SSW 12.7 mph - N/A   Scattered Clouds
11:02 AM 75.2 °F 68.0 °F 78% 30.23 in 10.0 mi South 10.4 mph - N/A   Mostly Cloudy
11:44 AM 75.2 °F 66.2 °F 73% 30.23 in 10.0 mi South 11.5 mph - N/A   Scattered Clouds
11:54 AM 75.9 °F 66.9 °F 74% 30.16 in 10.0 mi South 12.7 mph - N/A   Partly Cloudy
12:54 PM 77.0 °F 68.0 °F 74% 30.15 in 10.0 mi South 11.5 mph - N/A   Mostly Cloudy
1:54 PM 79.0 °F 68.0 °F 69% 30.13 in 10.0 mi South 10.4 mph - N/A   Clear
2:54 PM 78.1 °F 68.0 °F 71% 30.13 in 10.0 mi SSW 10.4 mph - N/A   Partly Cloudy
3:54 PM 79.0 °F 68.0 °F 69% 30.11 in 10.0 mi South 11.5 mph 17.3 mph N/A   Scattered Clouds
4:54 PM 78.1 °F 66.9 °F 68% 30.10 in 10.0 mi SSW 10.4 mph - N/A   Partly Cloudy
5:54 PM 77.0 °F 68.0 °F 74% 30.09 in 10.0 mi South 6.9 mph - N/A   Clear
6:23 PM 75.2 °F 68.0 °F 78% 30.17 in 10.0 mi NNW 10.4 mph - N/A   Mostly Cloudy
6:45 PM 73.4 °F 68.0 °F 83% 30.17 in 10.0 mi NNW 5.8 mph - N/A   Overcast
6:54 PM 75.0 °F 68.0 °F 79% 30.10 in 10.0 mi NNW 6.9 mph - N/A   Mostly Cloudy
7:54 PM 71.1 °F 68.0 °F 90% 30.12 in 10.0 mi NNW 8.1 mph - N/A   Overcast
8:54 PM 70.0 °F 68.0 °F 93% 30.13 in 10.0 mi NNW 8.1 mph - N/A   Mostly Cloudy
9:27 PM 69.8 °F 68.0 °F 94% 30.21 in 10.0 mi North 6.9 mph - N/A   Mostly Cloudy
9:54 PM 70.0 °F 68.0 °F 93% 30.15 in 10.0 mi NNW 5.8 mph - N/A   Scattered Clouds
10:05 PM 69.8 °F 68.0 °F 94% 30.23 in 10.0 mi North 6.9 mph - N/A   Mostly Cloudy
10:54 PM 70.0 °F 68.0 °F 93% 30.16 in 10.0 mi North 4.6 mph - N/A   Mostly Cloudy
11:28 PM 69.8 °F 68.0 °F 94% 30.24 in 10.0 mi North 5.8 mph - N/A   Overcast
11:54 PM 70.0 °F 68.0 °F 93% 30.16 in 10.0 mi Calm Calm - N/A   Overcast